CALSPHERE 1

Last updated on Fri Dec 29 2023 00:03:35 GMT+0000 (Coordinated Universal Time)

1 00900U 64063C 23362.15893429 .00000916 00000+0 95234-3 0 9996 2 00900 90.1965 51.7777 0028127 137.8878 276.9092 13.74691202947399
UTC large
Height (km)
Speed (km/s)
/
Latitude / Longitude
Inclination (degrees)
Orbital Period (minutes)
Azimuth
Elevation
Range (km)
Doppler Factor

Next 0 passes for location: London (51.5072 / 0.1276)

Sorry there are no passes over London.
CALSPHERE 1